Location: Fort Worth, Tx
(32.7431°N, 97.3695°W)
Time: 17:41:42
(UTC-04:00)

Transit 4A - Pass Details

Date: 06 March 2024
Orbit: 871 x 972 km, 66.8° (Epoch: 21 April)

Event Time Altitude Azimuth Distance (km) Brightness Sun altitude
Rises 22:31:44 0° 166° (SSE) 3,616 - -38.1°
Reaches altitude 10° 22:34:59 10° 150° (SSE) 2,659 - -38.8°
Maximum altitude 22:39:18 20° 105° (ESE) 2,015 - -39.6°
Drops below altitude 10° 22:43:34 10° 60° (ENE) 2,621 - -40.4°
Sets 22:46:43 0° 45° (NE) 3,548 - -41.0°
